Regional Weather Roundup
Issued by NWS

Home | Current Version | Previous Version | Graphics & Text | Print | Product List | Glossary On
Versions: 1 2 3 4 5 6 7 8 9 10 11 12 13 14 15 16 17 18 19 20 21 22 23 24 25 26 27 28 29 30 31 32 33 34 35 36 37 38 39 40 41 42 43 44 45 46 47 48 49 50
000
ASUS43 KDTX 281310
RWRMI
MICHIGAN HOURLY REGIONAL WEATHER ROUNDUP
NATIONAL WEATHER SERVICE DETROIT/PONTIAC MI
900 AM EDT MON JUL 28 2014

NOTE: "FAIR" INDICATES FEW OR NO CLOUDS BELOW 12,000 FEET WITH NO
SIGNIFICANT WEATHER AND/OR OBSTRUCTION TO VISIBILITY.

MIZ047>049-052>055-059>063-066>070-074>076-081>083-281400-
SOUTHEAST LOWER MICHIGAN

CITY           SKY/WX    TMP DP  RH WIND       PRES   REMARKS
ADRIAN         CLOUDY    63  56  78 N15G22    29.88R
ALMA           CLOUDY    59  55  87 N10G16    29.94R
ANN ARBOR      CLOUDY    62  54  74 N16       29.87R
BAD AXE        CLOUDY    58  50  76 N14       29.89R
DETROIT CITY   LGT RAIN  65  54  67 N16G23    29.83R
DETROIT        CLOUDY    62  54  74 N17       29.85R
FLINT          CLOUDY    62  53  72 N14G23    29.89R
GROSSE ILE     CLOUDY    64  55  72 N15G22    29.83R
HILLSDALE      CLOUDY    62  59  88 N9        29.91R
HOWELL         CLOUDY    60  55  83 N10       29.89R

CITY           SKY/WX    TMP DP  RH WIND       PRES   REMARKS
JACKSON        CLOUDY    61  56  83 N6        29.90R
LAMBERTVILLE   PTSUNNY   64  55  72 N14G20    29.86R
LANSING        CLOUDY    61  56  83 N12G20    29.92R
LAPEER         NOT AVBL
MASON          CLOUDY    60  56  85 N10       29.91R
MONROE         CLOUDY    64  57  77 N12       29.83R
MT. CLEMENS    CLOUDY    62  56  82 N15       29.82R
PONTIAC        CLOUDY    59  53  80 N15       29.86R
PORT HOPE        N/A     60  51  72 N18G28    29.87R
PORT HURON     CLOUDY    61  57  88 N9G20     29.82R
TRI CITIES     CLOUDY    62  55  77 N13       29.92R
YPSILANTI      CLOUDY    65  54  67 N17G23    29.86R
$$
MIZ043>046-050>051-056>058-064>065-071>073-077>080-281400-
SOUTHWEST LOWER MICHIGAN

CITY           SKY/WX    TMP DP  RH WIND       PRES   REMARKS
BATTLE CREEK   CLOUDY    61  55  81 N10       29.94R
BENTON HARBOR  CLOUDY    58  54  86 N8G16     29.98R
BIG RAPIDS     CLOUDY    57  57 100 N6        29.96R
COLDWATER      CLOUDY    63  56  80 N9        29.93R
HOLLAND        CLOUDY    60  55  83 NW6       29.98R
GRAND RAPIDS   MOSUNNY   61  56  83 N13       29.95R
KALAMAZOO      CLOUDY    60  55  83 N12       29.95R
MARSHALL       CLOUDY    60  55  86 N6        29.92R
MUSKEGON       CLOUDY    58  52  80 N10       29.99R
$$
MIZ016>042-281400-
NORTHERN LOWER MICHIGAN

CITY           SKY/WX    TMP DP  RH WIND       PRES   REMARKS
ALPENA         CLOUDY    57  48  72 N13       29.95R
BEAVER ISLAND  SUNNY     54  47  76 N10G16    30.03R
BELLAIRE       CLOUDY    55  47  72 N7        29.99R
CADILLAC       CLOUDY    55  53  94 N8        29.97R
CHARLEVOIX     PTSUNNY   56  45  64 NE12G20   30.03R
FRANKFORT      PTSUNNY   57  48  73 N6        30.01R
GAYLORD        CLOUDY    52  45  77 VRB6      29.97R
GRAYLING       CLOUDY    56  50  80 N10       29.97R
HARBOR SPRINGS SUNNY     55  44  67 N6        29.99R
HOUGHTON LAKE  CLOUDY    56  51  84 N6        29.96R
MANISTEE       CLOUDY    55  48  76 N12       30.01R
OSCODA         PTSUNNY   60  49  66 N13       29.91R
PELLSTON       SUNNY     55  44  66 N16       30.00R
TRAVERSE CITY  CLOUDY    58  50  75 N14G20    29.98R
$$
MIZ007>008-015-281400-
EASTERN UPPER MICHIGAN

CITY           SKY/WX    TMP DP  RH WIND       PRES   REMARKS
KINROSS        CLOUDY    54  45  71 N9        30.00R
MACKINAC ISLAN PTSUNNY   53  44  72 N10G16    30.00R
NEWBERRY       PTSUNNY   48  42  81 N6        30.04R
S. S. MARIE    PTSUNNY   56  43  61 N8        29.99R
$$
MIZ004>006-011>014-085-281400-
CENTRAL UPPER MICHIGAN

CITY           SKY/WX    TMP DP  RH WIND       PRES   REMARKS
MANISTIQUE     SUNNY     52  44  73 N8        30.05R
ESCANABA       SUNNY     52  43  71 NW6       30.07R
MENOMINEE      SUNNY     54  45  71 N8        30.08R
SAWYER-GWINN   CLOUDY    50  46  87 NW5       30.08S
$$
MIZ001>003-009>011-084-281400-
WESTERN UPPER MICHIGAN

CITY           SKY/WX    TMP DP  RH WIND       PRES   REMARKS
IRON MOUNTAIN  CLOUDY    52  47  83 NW7       30.09R
COPPER HARBOR    N/A     58  48  69 CALM      30.05F
IRONWOOD       PTSUNNY   55  55 100 W7        30.12R
$$

ABBREVIATIONS USED IN REMARKS
   TC - TEMPERATURE IN CELSIUS
  WCI - WIND CHILL INDEX
   HX - HEAT INDEX
  VSB - VISIBILITY




USA.gov is the U.S. government's official web portal to all federal, state and local government web resources and services.